Location: Boullarre
(49.1305°N, 3.0047°E)
Time: 20:40:28
(UTC+00:00)

ISS - Pass Details

Date: 22 September 2024
Orbit: 411 x 423 km, 51.6° (Epoch: 14 October)

Event Time Altitude Azimuth Distance (km) Brightness Sun altitude
Rises 20:13:46 0° 289° (WNW) 2,373 1.4 -24.1°
Reaches altitude 10° 20:15:52 10° 288° (WNW) 1,510 0.1 -24.3°
Enters shadow 20:17:59 35° 282° (WNW) 702 -2.2 -24.6°
